ONEWEB-0058 (45161 NORAD) Tracking and Keplerian Element Data

This shows tracking and keplerian element data for the satellite.

Feedback or suggestion? Click here.




ElementValue
Catalog45161
NameONEWEB-0058
Epoch Orbit2467
Epoch Day197.16667824
Epoch Year2020
RAAN113.2116
Inclination87.5363
Eccentricity0.0023069
Argument of Perigee89.6002
Mean Anonmoly48.6312
Mean Motion14.90856995
Decay Rate0.00061798
L11 45161U 20008AG 20197.16667824 .00061798 00000-0 61954-2 0 9994
L22 45161 87.5363 113.2116 0023069 89.6002 48.6312 14.90856995 24670

Live tracking and technical data element details for ONEWEB-0058 (NORAD 45161). ONEWEB-0058 can be tracked NOW for your location showing map with azimuth and elevation plus other details from your city location.

Track the satellite on the map from your city or location and see movement details for azimuth, elevation, latitude, longitude, range, height, and movement on the map or in text.







IsCatalogInMostPopularTable: catalog: 45161, numindb: 35
Update: records affected: 1



GetName: 45161 ONEWEB-0058

Hit Count: updated at: Thu, 16 Jul 2020 03:36:14 GMT